GEFSNGP_con_prob3kmehi_258.txt.gz
EHI
0 0 0 0 0 0 0 0 0 0 1 4 9 15 22 27 27 26 28 31 33 34 36 40 41 41 41 41 41 42 41 39 37 31 24 19 15 13 12 11 10 11 12 12
0 0 0 0 0 0 0 0 0 0 1 5 10 17 24 28 28 27 28 32 33 33 36 40 41 41 42 42 42 41 40 38 35 31 25 21 18 14 11 10 11 11 11 11
0 0 0 0 0 0 1 1 0 1 3 8 12 17 24 27 28 27 29 32 32 31 34 37 37 39 41 41 39 37 34 32 31 29 26 23 19 15 12 10 11 12 11 10
0 0 0 0 0 0 1 2 2 3 6 10 14 18 22 26 27 27 28 30 29 28 29 30 30 34 38 38 34 30 26 24 24 24 23 21 18 16 14 13 13 13 12 11
0 0 0 0 0 0 2 4 5 6 8 12 18 21 21 23 26 26 26 26 27 26 27 28 29 31 34 34 31 26 23 21 20 19 18 17 17 17 16 16 15 14 13 12
0 0 0 0 0 1 3 5 6 6 8 13 17 18 17 18 22 25 26 26 26 26 27 29 30 31 32 31 28 25 23 21 20 18 16 15 16 18 18 17 16 15 14 14
0 0 0 0 0 1 2 3 4 5 7 10 11 11 12 14 18 23 26 26 26 27 28 28 29 30 31 29 25 23 21 20 20 18 16 14 16 19 21 20 18 16 15 14
0 0 0 1 1 1 1 3 4 5 8 9 9 8 10 14 17 21 24 26 28 30 29 27 26 28 29 27 24 22 20 19 18 18 16 15 18 21 23 23 21 19 17 16
1 1 1 1 1 1 3 5 6 6 8 10 10 9 11 16 19 20 22 26 29 32 30 26 23 24 25 24 24 23 21 18 17 16 15 17 21 22 23 23 22 21 21 20
2 2 2 2 2 3 6 8 7 6 8 11 12 12 15 19 21 22 23 26 30 32 30 26 22 21 21 22 23 23 21 19 16 15 15 18 20 21 20 21 21 22 22 22
3 3 4 4 4 6 8 8 7 7 9 12 14 16 18 20 22 22 23 27 31 32 29 25 22 20 20 21 22 22 21 18 16 15 14 14 15 14 13 14 16 17 19 21
3 4 4 5 8 10 9 7 6 7 9 12 15 18 19 21 22 22 23 27 29 29 28 25 22 20 20 20 21 21 21 18 15 13 12 10 9 8 7 7 8 8 11 14
4 4 5 7 11 12 8 5 5 6 7 10 14 17 19 21 23 22 22 24 26 26 26 24 20 19 19 19 20 20 19 17 15 12 10 9 8 7 5 4 2 2 4 5
4 5 6 9 12 12 8 5 4 5 6 8 11 14 16 20 22 21 19 19 21 23 22 19 17 17 18 19 20 18 17 16 14 11 8 7 7 7 5 4 3 1 0 1
5 6 8 10 12 11 8 5 4 5 6 7 9 11 14 17 19 18 15 14 16 17 15 13 13 14 16 17 18 16 14 12 12 10 8 6 5 5 5 5 5 3 1 0
6 6 8 10 12 10 8 5 4 5 6 7 8 9 10 14 16 15 13 12 13 13 11 10 10 11 13 14 14 13 11 9 9 9 8 7 6 5 5 6 6 5 2 1
6 6 6 8 10 9 7 5 4 5 6 7 8 7 7 9 12 12 10 9 10 11 10 9 9 10 11 12 11 10 9 8 8 8 8 8 8 7 6 6 5 4 3 1
4 4 4 4 5 6 6 5 4 4 5 6 6 6 4 5 8 8 7 7 8 9 9 9 9 10 10 10 9 9 9 8 8 9 9 8 8 7 6 5 4 3 3 2
3 3 2 2 2 2 3 3 3 3 4 4 4 3 3 4 5 6 6 6 6 6 7 8 9 9 8 8 7 8 9 9 9 10 9 8 6 5 5 4 3 3 3 3
3 3 3 3 2 2 3 3 3 3 4 3 3 2 2 3 4 4 4 4 4 4 5 6 7 7 7 7 6 7 8 9 10 10 9 7 5 4 4 4 4 3 3 3
3 4 5 5 4 4 5 5 4 4 4 3 2 2 2 3 3 3 3 3 3 2 2 2 4 5 5 6 6 7 7 8 8 8 6 4 3 2 2 3 4 4 3 2
3 4 5 5 4 5 6 6 5 5 5 4 2 2 3 3 3 3 3 2 1 1 0 0 1 2 3 4 5 6 6 6 5 4 3 1 1 1 1 2 3 3 3 3
3 3 4 4 4 4 6 6 5 6 6 5 3 3 3 3 3 2 1 1 0 0 0 0 0 0 1 1 3 3 3 3 2 1 1 0 0 0 0 1 2 3 3 3
3 2 1 2 2 4 5 5 4 4 5 4 3 2 2 2 1 1 0 0 0 0 0 0 0 0 0 0 1 1 1 2 1 0 0 0 0 0 0 1 3 3 3 3
2 1 0 0 2 3 4 3 3 3 3 2 1 1 1 1 0 0 0 0 0 0 0 0 0 0 0 0 0 0 1 1 1 0 0 0 0 0 1 2 3 3 3 3
1 0 0 1 2 3 3 3 3 3 2 1 0 0 0 0 0 0 0 0 0 0 0 0 0 0 0 0 0 0 0 0 0 0 0 0 0 0 1 2 3 3 3 3
0 0 1 2 3 3 3 3 3 2 1 0 0 0 0 0 0 0 0 0 0 0 0 0 0 0 0 0 0 0 0 0 0 0 0 0 0 0 1 2 3 3 3 2

GEFSNGP_con_prob3kmehi_264.txt.gz
EHI
0 0 0 0 0 0 0 0 0 0 0 1 2 4 5 8 8 8 8 10 12 11 10 11 12 12 13 15 17 19 19 18 16 14 11 10 9 9 9 9 8 8 7 5
0 0 0 0 0 0 0 0 0 0 0 1 3 4 7 9 10 10 10 12 12 10 9 9 10 11 13 16 19 19 17 15 13 11 10 9 9 9 10 10 9 9 8 7
0 0 0 0 0 0 0 0 0 0 0 2 4 6 8 11 12 11 11 12 10 7 6 7 7 10 13 16 19 19 15 11 9 8 8 8 8 9 10 11 10 9 9 8
0 0 0 0 0 0 0 0 0 0 1 3 6 6 8 10 11 10 9 9 7 5 4 6 8 10 13 15 16 17 14 10 9 9 9 9 9 10 11 11 10 9 8 8
0 0 0 0 0 0 0 0 0 1 2 5 6 6 6 6 7 6 5 6 6 5 5 7 9 11 12 13 13 14 14 13 13 14 13 12 12 12 12 12 11 10 8 7
0 0 0 0 0 0 0 0 1 2 4 5 6 6 4 2 3 4 5 5 6 7 8 9 11 11 12 12 11 12 13 14 15 16 15 14 14 14 14 13 12 10 9 8
0 0 0 0 0 0 0 0 1 3 4 4 4 4 3 1 2 4 6 6 7 8 9 10 10 10 9 10 10 10 10 10 12 14 14 13 13 14 13 13 12 11 10 9
0 0 0 0 0 0 0 0 1 3 3 2 3 4 3 3 4 6 8 8 8 7 8 9 9 9 8 8 10 10 9 8 10 12 12 13 13 13 12 11 10 10 11 11
0 0 0 0 0 0 0 0 2 3 2 2 3 5 5 4 5 7 9 9 8 7 7 8 9 9 9 10 11 11 10 9 9 9 10 11 12 12 12 11 10 11 11 12
0 0 1 1 0 0 0 0 1 2 1 1 3 5 5 5 6 8 9 9 8 7 7 8 10 10 11 12 13 13 11 9 7 7 7 9 10 12 12 11 10 10 11 11
0 0 1 1 0 0 0 0 1 2 1 1 3 5 6 7 8 9 10 9 8 7 7 8 10 12 13 15 16 16 13 10 8 7 7 7 9 10 11 9 8 7 8 9
0 0 1 1 0 0 0 0 2 4 3 4 5 7 8 9 10 10 11 10 8 7 8 9 12 14 15 17 18 17 15 12 10 9 7 7 8 7 7 6 4 3 4 5
1 1 2 1 0 0 0 1 3 6 7 7 8 9 9 9 9 10 11 9 8 8 9 11 12 13 14 16 18 17 14 12 11 9 8 8 7 6 4 4 3 2 2 3
2 3 2 1 0 0 0 1 4 8 9 9 9 8 8 7 7 8 8 7 6 7 9 10 10 9 10 12 13 12 11 9 7 7 6 6 7 5 4 4 4 4 3 3
3 3 2 1 1 1 0 2 6 8 9 8 7 6 6 5 6 6 5 4 4 5 6 6 6 5 6 8 8 8 7 5 4 4 4 5 5 4 3 4 5 5 4 3
3 3 1 1 2 2 1 3 5 7 7 7 6 4 4 4 5 5 3 2 3 3 4 4 3 3 3 5 5 6 5 4 3 3 3 4 4 4 3 3 4 4 3 3
3 3 2 2 3 2 2 3 4 4 6 6 5 4 3 3 3 3 1 1 1 1 2 2 2 3 4 3 3 5 5 4 3 3 3 4 5 4 3 3 3 3 3 3
3 3 3 3 3 3 3 3 3 3 4 5 5 4 3 3 1 1 0 0 0 0 1 1 1 3 4 3 2 4 6 5 4 4 3 4 5 5 4 3 3 3 3 2
2 2 2 2 2 2 2 2 2 2 3 4 5 5 4 2 1 0 0 0 0 0 0 1 1 3 3 2 2 4 6 6 6 5 4 5 6 5 3 2 2 2 2 1
1 1 1 1 1 1 1 1 1 1 2 3 4 4 3 2 1 0 0 0 0 0 0 1 2 3 2 1 3 5 6 6 6 6 6 6 6 4 2 1 1 1 1 0
0 0 0 0 0 0 0 1 1 1 2 3 3 3 2 1 0 0 0 0 0 0 1 2 3 2 1 1 2 5 6 6 6 6 6 6 5 4 1 0 0 0 0 0
0 1 1 1 0 0 1 2 2 3 3 3 2 1 1 0 0 0 0 0 0 1 2 2 2 1 0 0 2 5 6 6 6 6 6 6 6 4 2 0 0 0 0 0
1 1 2 1 0 0 1 2 2 2 2 2 1 0 0 0 0 1 1 0 0 1 2 2 1 0 0 0 2 4 5 6 6 6 6 6 6 5 3 1 0 0 0 0
0 1 1 1 0 0 1 1 1 1 1 1 0 0 0 1 1 1 1 0 0 0 1 1 0 0 0 0 0 2 3 3 3 3 3 3 3 4 3 2 0 0 0 0
0 0 0 1 0 0 0 0 0 0 0 0 0 0 0 1 1 1 1 0 0 0 0 0 0 0 0 0 0 0 1 1 1 1 1 1 1 2 2 1 0 0 0 0
0 0 0 0 0 0 0 0 0 0 0 0 0 0 0 1 1 0 0 0 0 0 0 0 0 0 0 0 0 0 0 0 0 0 0 0 0 1 1 0 0 0 0 0
0 0 0 0 0 0 0 0 0 0 0 0 0 0 0 0 0 0 0 0 0 0 0 0 0 0 0 0 0 0 0 0 0 0 0 0 0 0 0 0 0 0 0 0

GEFSNGP_con_prob3kmehi_270.txt.gz
EHI
0 0 0 0 0 0 0 0 0 0 1 2 4 7 9 10 13 16 20 25 30 34 36 38 36 35 34 32 32 31 30 27 26 26 28 26 21 17 15 15 16 16 16 15
0 0 0 0 0 0 0 0 0 0 1 3 5 8 11 13 15 17 18 22 25 29 32 34 35 36 35 34 35 35 32 30 28 27 27 24 20 17 17 19 20 19 18 17
0 0 0 0 0 0 0 0 0 0 0 3 7 11 12 15 17 17 17 17 20 24 27 27 29 32 33 33 34 35 35 34 32 30 28 25 21 20 21 23 23 22 21 21
0 0 0 0 0 0 0 0 1 1 1 3 7 10 11 14 16 15 14 15 17 20 21 22 24 27 28 27 27 30 32 33 33 32 31 28 25 26 27 27 25 24 23 23
0 0 0 0 0 0 0 1 2 3 3 4 6 8 9 12 15 14 12 13 16 18 19 21 24 26 25 21 20 22 26 29 32 33 31 29 28 30 31 30 28 26 24 23
0 0 0 0 0 0 0 1 2 3 5 6 8 9 10 13 15 15 13 13 16 20 23 25 27 27 24 20 17 18 21 26 31 32 30 27 27 29 30 30 29 27 25 24
0 0 0 0 0 0 1 2 3 4 6 8 10 11 14 15 16 16 14 13 17 24 28 28 27 26 23 20 18 19 22 26 30 31 28 25 24 25 28 28 28 27 27 27
0 0 0 1 1 1 3 5 6 6 7 8 9 12 14 14 16 16 15 15 21 28 31 27 24 23 22 19 19 21 23 27 30 31 29 25 23 23 25 27 26 25 26 26
0 0 1 2 3 3 3 4 6 7 8 7 9 12 12 12 14 16 16 18 23 30 31 26 21 21 21 21 21 22 25 28 31 32 31 27 23 22 23 24 23 21 20 21
1 1 1 3 3 2 1 3 5 6 6 7 9 11 11 11 14 16 18 20 24 29 30 27 23 21 22 23 23 23 24 27 29 31 30 26 23 20 20 19 17 16 16 16
2 2 3 3 3 1 1 3 5 6 5 6 8 10 11 13 14 16 17 20 23 27 28 28 25 24 24 24 25 24 23 25 26 25 24 22 20 18 17 15 12 11 12 12
3 3 3 3 3 2 2 4 7 8 7 7 8 9 10 12 14 15 17 20 23 25 25 26 26 26 25 25 26 25 24 24 22 20 20 17 16 16 14 10 7 6 7 7
3 2 3 3 2 3 3 5 8 11 10 9 9 8 8 11 13 15 17 19 21 22 22 23 26 28 27 26 26 27 25 21 18 18 18 16 15 15 13 10 7 5 3 2
3 3 3 3 2 3 4 6 9 10 10 10 10 9 9 12 13 14 15 16 19 20 21 23 27 29 28 25 25 24 21 17 15 16 16 14 13 14 14 13 12 8 3 0
3 3 3 3 3 3 3 5 7 7 7 6 7 7 10 13 15 15 14 15 17 20 22 24 27 27 25 23 20 18 16 14 14 15 13 11 11 12 13 14 14 10 5 3
3 3 3 3 3 2 2 2 3 3 3 3 3 5 8 11 15 15 15 16 17 20 22 23 24 23 20 19 18 16 14 12 13 14 11 10 10 11 11 11 10 9 7 6
3 3 3 3 2 1 0 0 1 1 1 1 2 3 5 9 11 13 14 16 18 19 18 18 19 18 16 16 16 16 14 11 11 12 11 10 10 10 10 9 7 6 7 7
3 3 3 2 1 0 0 0 1 2 3 2 2 1 3 5 7 9 12 14 16 15 13 12 13 13 12 11 13 14 12 11 10 9 9 9 9 10 10 8 6 5 5 5
3 3 2 1 0 0 0 0 1 4 6 5 3 1 1 2 5 7 9 11 12 11 9 8 8 9 9 7 8 9 9 8 7 7 7 7 8 9 9 8 5 3 3 4
3 3 3 2 1 0 0 0 2 5 7 6 4 2 1 3 4 6 7 9 10 9 7 5 6 7 7 4 3 3 4 5 5 5 6 6 8 9 9 7 4 3 3 3
3 3 3 2 1 0 0 1 2 5 6 4 2 2 2 2 3 4 6 8 9 8 5 4 4 5 3 2 1 1 2 4 6 6 6 7 8 9 8 6 4 3 3 3
3 3 3 2 1 0 1 3 4 4 4 3 2 1 1 1 2 4 6 7 7 5 4 4 3 2 1 1 2 2 3 5 6 6 7 8 8 7 7 6 5 4 3 3
3 2 1 1 0 0 1 4 5 4 4 4 3 1 1 1 3 5 6 5 4 2 3 3 2 0 0 1 3 3 3 4 4 5 6 6 5 5 6 6 6 5 4 4
2 1 0 0 0 0 1 4 5 5 5 5 3 3 2 3 4 6 5 3 1 0 1 1 1 0 1 2 3 3 3 3 3 3 3 3 4 4 4 4 5 5 5 5
1 0 0 0 0 0 1 2 3 4 5 5 4 4 4 4 5 6 5 2 0 0 0 0 0 0 1 2 3 3 3 2 2 1 1 2 3 3 3 3 4 3 3 3
0 0 0 0 0 0 1 2 2 2 4 4 3 3 3 4 4 4 3 1 0 0 0 0 0 0 0 1 1 2 1 1 1 0 0 1 1 2 2 3 3 2 1 1
0 0 0 0 0 1 2 2 1 1 3 3 2 2 2 2 2 2 1 1 0 0 0 0 0 0 0 0 0 1 0 0 0 0 0 0 0 1 1 2 2 2 1 0

GEFSNGP_con_prob3kmehi_276.txt.gz
EHI
0 0 0 0 0 0 0 0 0 1 1 5 10 15 17 19 22 27 33 39 46 52 54 54 53 49 45 43 46 50 51 50 50 51 52 53 53 51 49 48 45 41 39 38
0 0 0 0 0 0 0 0 1 1 3 6 10 14 19 23 25 29 34 40 49 55 57 56 52 47 44 43 46 50 50 49 49 51 52 52 50 48 47 47 45 41 38 37
0 0 0 0 0 0 0 1 2 4 6 9 12 16 21 26 28 31 37 45 52 56 57 56 50 46 44 43 45 48 47 46 47 48 48 47 45 44 44 43 41 39 39 39
0 0 0 1 1 1 1 2 4 6 8 11 14 17 20 23 27 32 39 48 54 53 52 51 47 43 42 41 42 43 43 43 44 44 43 42 42 41 40 38 37 36 37 39
0 0 1 2 2 2 3 4 6 9 11 11 12 14 15 19 26 33 40 48 51 49 47 48 46 43 41 39 39 40 41 42 43 41 39 40 41 39 37 35 34 32 34 37
0 0 1 1 2 2 3 6 8 12 14 14 13 14 17 23 30 35 40 45 46 45 46 50 50 47 44 40 39 39 40 41 42 40 38 39 40 38 35 33 32 32 33 34
0 0 1 1 2 3 7 10 13 15 17 17 18 20 25 31 36 38 40 41 41 42 47 52 51 49 46 43 40 38 37 37 38 39 38 38 39 38 35 33 33 33 32 30
1 2 4 5 6 9 14 17 15 14 16 17 17 21 27 34 37 36 35 36 37 41 47 49 48 47 44 42 40 38 34 32 34 36 36 37 38 37 36 35 34 32 30 28
4 5 7 9 10 12 15 16 13 12 13 14 15 18 25 32 34 32 29 30 34 38 41 44 44 43 41 40 40 38 33 31 33 34 34 35 37 37 35 33 32 30 29 28
10 9 9 8 7 8 10 10 10 9 10 12 14 18 24 29 32 32 28 27 31 36 38 41 42 41 39 39 39 37 34 32 33 34 33 35 37 35 30 27 27 28 28 28
13 12 9 6 5 5 6 7 7 8 8 10 13 18 23 28 33 35 32 29 30 35 38 40 42 40 37 37 37 36 34 33 32 32 32 34 34 29 22 19 20 21 22 22
12 11 8 6 4 4 6 6 6 7 7 8 11 16 21 26 30 33 34 33 33 35 37 37 37 37 35 35 36 36 35 34 32 31 31 32 30 24 17 13 11 11 12 13
9 8 6 4 3 4 4 4 5 6 6 6 8 13 19 23 26 29 32 32 32 33 33 31 30 32 35 36 37 36 34 32 30 30 30 31 29 26 21 14 9 7 6 5
5 5 4 3 3 4 4 4 4 5 5 5 7 12 18 20 22 24 25 26 26 27 27 25 24 27 32 36 36 35 32 28 27 27 27 27 26 25 24 20 16 12 7 3
3 4 4 3 3 4 3 4 5 5 6 6 7 11 15 16 14 15 16 17 18 19 21 22 22 24 27 31 32 32 29 25 22 23 23 22 20 19 20 21 20 17 12 7
3 3 3 3 3 3 3 3 4 5 6 6 7 9 12 11 8 8 9 11 13 16 20 22 22 22 23 23 24 25 23 19 17 17 18 18 17 17 18 18 18 17 16 14
3 3 3 3 3 3 3 3 3 4 6 7 7 9 10 8 5 6 8 10 13 16 19 20 19 20 20 19 17 16 15 13 12 13 14 15 16 17 17 16 16 16 16 15
3 3 3 3 3 3 3 3 3 4 6 7 8 9 9 6 4 6 9 13 16 18 18 16 15 17 18 16 14 12 11 10 9 10 11 12 14 15 15 13 13 14 13 12
3 3 3 3 3 3 3 3 3 4 5 6 7 7 5 4 4 5 8 12 15 15 16 14 12 13 15 14 11 11 11 9 9 10 10 10 11 12 12 12 11 11 10 10
3 3 3 3 3 3 3 3 3 3 4 5 5 5 5 4 4 5 6 8 10 11 12 11 10 10 11 10 7 7 8 9 9 9 9 9 9 10 11 11 10 9 9 9
4 4 3 3 4 4 3 3 3 3 3 4 6 7 6 5 4 4 4 6 8 9 8 7 8 8 7 5 3 3 5 6 7 8 9 9 9 9 10 10 9 8 8 7
6 5 4 4 4 4 4 3 3 3 3 3 5 7 7 5 4 3 3 4 7 8 7 6 5 4 3 2 1 2 2 2 3 4 6 7 6 6 6 6 7 7 7 7
6 5 4 3 4 4 3 3 3 2 1 2 5 6 7 6 4 2 2 2 5 6 6 5 3 2 1 1 1 2 1 0 1 1 2 4 4 4 4 5 6 7 7 8
4 4 3 3 3 3 3 3 2 1 2 3 4 5 5 5 4 4 3 2 3 5 6 4 2 1 1 2 2 1 0 0 0 0 1 2 3 4 5 6 6 6 8 9
3 3 3 3 3 3 3 2 1 3 4 4 4 4 4 4 5 6 6 4 3 3 4 2 0 0 1 1 1 0 0 1 1 1 1 3 3 4 5 6 5 5 6 6
3 3 3 3 3 2 1 1 2 3 3 3 2 3 3 4 6 7 6 4 3 2 1 0 0 0 0 0 0 0 0 1 2 3 2 3 3 4 5 4 4 4 4 4
3 3 3 3 2 1 0 1 2 3 2 1 1 2 3 4 6 7 6 4 2 1 0 0 0 0 0 0 0 0 1 2 3 3 3 2 3 4 4 4 3 3 3 2